{"data":{"norad_id":66782,"epoch":"2026-09-19T10:14:53.809152Z","epoch_age_seconds":107803,"freshness":"FRESH","line1":"1 66782U 25276DW  26262.42701168  .00003128  00000+0  24907-3 0  9996","line2":"2 66782  97.5219 330.4981 0010644 134.4186 225.7912 15.01032450 34134","mean_motion":15.0103245,"eccentricity":0.0010644,"inclination_deg":97.5219,"raan_deg":330.4981,"arg_perigee_deg":134.4186,"mean_anomaly_deg":225.7912,"bstar":0.00024907,"rev_number":3413,"period_min":95.933968649379,"perigee_km":556.32242479491,"apogee_km":571.10023151589,"semimajor_km":6941.8483281554,"source":"CELESTRAK","updated_at":"2026-09-20T09:00:34.880012Z"}}